EW7070 Weather Reports


time (UTC)temp
C
wind
direction
speed
KPH
gust
KPH
rain 1hr
cm
rain 24hr
cm
rain mn
cm
humidity
%
barometer
mb
20260903174437 27 276 4.8 22.5 0.00 0.00 0.00 49 1008.8
20260903173932 28 320 6.4 22.5 0.00 0.00 0.00 52 1008.8
20260903173422 28 266 9.7 25.7 0.00 0.00 0.00 49 1008.7
20260903172922 28 262 11.3 25.7 0.00 0.00 0.00 50 1008.7
20260903172421 28 306 11.3 27.4 0.00 0.00 0.00 48 1008.8
20260903171856 28 339 9.7 27.4 0.00 0.00 0.00 48 1008.8
20260903171332 28 8 8.0 19.3 0.00 0.00 0.00 51 1008.8
20260903170828 28 353 8.0 20.9 0.00 0.00 0.00 53 1009.0
20260903170327 28 326 9.7 20.9 0.00 0.00 0.00 52 1009.1
20260903165759 27 337 8.0 22.5 0.00 0.00 0.00 52 1009.3
20260903165250 27 94 6.4 24.1 0.00 0.00 0.00 54 1009.3
20260903164751 27 349 8.0 17.7 0.00 0.00 0.00 54 1009.5
20260903164502 27 14 8.0 19.3 0.00 0.00 0.00 51 1009.6
20260903163730 27 343 8.0 20.9 0.00 0.00 0.00 51 1009.7
20260903163223 27 301 11.3 27.4 0.00 0.00 0.00 52 1009.7
20260903162941 27 323 9.7 27.4 0.00 0.00 0.00 51 1009.9
20260903162204 27 316 8.0 22.5 0.00 0.00 0.00 52 1010.0
20260903161657 27 33 11.3 24.1 0.00 0.00 0.00 51 1010.0
20260903161419 27 345 12.9 33.8 0.00 0.00 0.00 53 1010.0
20260903160640 27 344 11.3 33.8 0.00 0.00 0.00 51 1010.2
20260903160113 28 282 11.3 24.1 0.00 0.00 0.00 54 1010.3
20260903155608 27 312 14.5 32.2 0.00 0.00 0.00 56 1010.4
20260903155043 27 322 11.3 32.2 0.00 0.00 0.00 55 1010.5
20260903154543 27 308 6.4 20.9 0.00 0.00 0.00 59 1010.7
20260903154027 27 345 6.4 17.7 0.00 0.00 0.00 59 1010.7
20260903153526 27 358 6.4 17.7 0.00 0.00 0.00 60 1010.9
20260903153004 27 0 6.4 19.3 0.00 0.00 0.00 62 1011.0
20260903152436 26 310 8.0 19.3 0.00 0.00 0.00 63 1011.0
20260903151934 26 341 8.0 20.9 0.00 0.00 0.00 65 1011.1
20260903151432 26 343 8.0 20.9 0.00 0.00 0.00 61 1011.2
20260903150924 26 295 8.0 16.1 0.00 0.00 0.00 62 1011.5
20260903150425 26 39 9.7 19.3 0.00 0.00 0.00 61 1011.6
20260903145904 25 35 11.3 19.3 0.00 0.00 0.00 62 1011.8
20260903145336 25 343 9.7 19.3 0.00 0.00 0.00 62 1011.9
20260903144808 25 18 9.7 20.9 0.00 0.00 0.00 61 1011.9
20260903144254 25 47 8.0 20.9 0.00 0.00 0.00 62 1012.1
20260903143754 25 10 8.0 17.7 0.00 0.00 0.00 62 1012.2
20260903143254 25 15 8.0 16.1 0.00 0.00 0.00 63 1012.2
20260903142752 25 65 6.4 16.1 0.00 0.00 0.00 64 1012.3
20260903142253 25 7 6.4 14.5 0.00 0.00 0.00 65 1012.4
20260903141754 25 337 6.4 14.5 0.00 0.00 0.00 65 1012.5
20260903141521 24 12 8.0 16.1 0.00 0.00 0.00 66 1012.5
20260903140749 24 353 9.7 24.1 0.00 0.00 0.00 65 1012.7
20260903140221 24 352 8.0 24.1 0.00 0.00 0.00 64 1012.8
20260903135715 24 273 8.0 19.3 0.00 0.00 0.00 64 1012.8
20260903135149 23 337 8.0 19.3 0.00 0.00 0.00 65 1012.8
20260903134645 23 22 8.0 16.1 0.00 0.00 0.00 64 1012.9
20260903134114 23 35 6.4 17.7 0.00 0.00 0.00 65 1012.8
20260903133613 23 42 8.0 22.5 0.00 0.00 0.00 65 1013.1
20260903133333 23 347 8.0 22.5 0.00 0.00 0.00 65 1012.9
20260903132601 23 280 9.7 22.5 0.00 0.00 0.00 67 1013.0
20260903132033 22 334 8.0 22.5 0.00 0.00 0.00 66 1013.1
20260903131507 22 3 8.0 16.1 0.00 0.00 0.00 67 1013.2
20260903131231 22 33 8.0 22.5 0.00 0.00 0.00 67 1013.3
20260903130458 22 44 9.7 22.5 0.00 0.00 0.00 68 1013.5
20260903125942 21 334 6.4 16.1 0.00 0.00 0.00 70 1013.5
20260903125438 21 266 6.4 14.5 0.00 0.00 0.00 72 1013.7
20260903124939 21 299 8.0 14.5 0.00 0.00 0.00 71 1013.9
20260903124413 21 348 6.4 14.5 0.00 0.00 0.00 72 1013.8
20260903123848 20 322 4.8 12.9 0.00 0.00 0.00 72 1013.8
20260903123321 20 351 4.8 12.9 0.00 0.00 0.00 76 1013.9
20260903122817 20 301 3.2 11.3 0.00 0.00 0.00 77 1013.9
20260903122754 19 314 4.8 11.3 0.00 0.00 0.00 77 1014.0
20260903121750 19 260 4.8 12.9 0.00 0.00 0.00 78 1014.0
20260903121249 18 260 6.4 12.9 0.00 0.00 0.00 79 1014.0
20260903120749 18 291 6.4 12.9 0.00 0.00 0.00 78 1014.1
20260903120250 18 291 6.4 12.9 0.00 0.00 0.00 79 1014.0
20260903115746 18 292 6.4 12.9 0.00 0.00 0.00 81 1014.1
20260903115242 17 283 6.4 12.9 0.00 0.00 0.00 81 1014.1
20260903114715 17 294 8.0 16.1 0.00 0.00 0.00 81 1014.1
20260903114150 17 297 8.0 16.1 0.00 0.00 0.00 81 1014.2
20260903113621 17 299 8.0 16.1 0.00 0.00 0.00 81 1014.1
20260903113120 16 318 4.8 14.5 0.00 0.00 0.00 83 1014.2
20260903112608 16 328 4.8 14.5 0.00 0.00 0.00 83 1014.0
20260903112043 16 288 6.4 16.1 0.00 0.00 0.00 84 1014.1
20260903111527 16 304 4.8 16.1 0.00 0.00 0.00 84 1014.1
20260903111028 15 312 4.8 16.1 0.00 0.00 0.00 85 1014.0
20260903110523 15 342 4.8 12.9 0.00 0.00 0.00 86 1014.1
20260903110018 15 292 6.4 11.3 0.00 0.00 0.00 87 1014.0
20260903105514 15 274 8.0 16.1 0.00 0.00 0.00 87 1013.9
20260903105010 15 278 8.0 16.1 0.00 0.00 0.00 88 1014.0
20260903104511 14 262 6.4 12.9 0.00 0.00 0.00 89 1013.8
20260903104007 14 263 4.8 11.3 0.00 0.00 0.00 91 1013.7
20260903103508 13 262 1.6 9.7 0.00 0.00 0.00 93 1013.6
20260903103010 13 45 0.0 6.4 0.00 0.00 0.00 93 1013.4
20260903102453 13 270 0.0 4.8 0.00 0.00 0.00 93 1013.1
20260903102225 13 12 0.0 4.8 0.00 0.00 0.00 91 1013.0
20260903101426 13 135 0.0 4.8 0.00 0.00 0.00 91 1013.1
20260903100901 13 297 0.0 3.2 0.00 0.00 0.00 90 1013.1
20260903100335 13 293 0.0 3.2 0.00 0.00 0.00 89 1013.0
20260903095831 13 291 1.6 11.3 0.00 0.00 0.00 88 1012.9
20260903095329 13 297 3.2 11.3 0.00 0.00 0.00 87 1012.9
20260903094824 13 321 6.4 12.9 0.00 0.00 0.00 87 1012.8
20260903094314 14 289 9.7 16.1 0.00 0.00 0.00 87 1012.8
20260903093810 14 301 11.3 22.5 0.00 0.00 0.00 87 1012.5
20260903093246 13 293 12.9 22.5 0.00 0.00 0.00 88 1012.3
20260903092717 13 274 12.9 17.7 0.00 0.00 0.00 90 1012.1
20260903092204 13 258 12.9 20.9 0.00 0.00 0.00 92 1011.9
20260903091701 13 241 12.9 20.9 0.00 0.00 0.00 95 1011.6
20260903091149 12 241 9.7 20.9 0.00 0.00 0.00 99 1011.3
20260903090651 12 252 4.8 16.1 0.00 0.00 0.00 99 1010.6
20260903090125 11 299 4.8 11.3 0.00 0.00 0.00 99 1010.2
20260903085611 11 228 6.4 14.5 0.00 0.00 0.00 99 1009.9
20260903085114 10 252 6.4 14.5 0.00 0.00 0.00 99 1009.8
20260903084823 10 177 4.8 14.5 0.00 0.00 0.00 99 1009.4
20260903084052 10 139 3.2 9.7 0.00 0.00 0.00 99 1008.9
20260903083822 10 177 4.8 14.5 0.00 0.00 0.00 98 1008.8
20260903083053 10 62 3.2 14.5 0.00 0.00 0.00 98 1008.7
20260903082754 10 118 1.6 4.8 0.00 0.00 0.00 98 1008.8
20260903082021 10 51 4.8 12.9 0.00 0.00 0.00 99 1008.7
20260903081453 10 154 4.8 12.9 0.00 0.00 0.00 99 1008.6
20260903080926 10 126 3.2 8.0 0.00 0.00 0.00 99 1008.7
20260903080419 9 230 3.2 8.0 0.00 0.00 0.00 99 1008.8
20260903075913 9 141 1.6 6.4 0.00 0.00 0.00 98 1008.8
20260903075412 8 23 3.2 6.4 0.00 0.00 0.00 98 1008.9
20260903074844 8 292 1.6 6.4 0.00 0.00 0.00 98 1008.9
20260903074316 8 329 1.6 4.8 0.00 0.00 0.00 98 1009.0
20260903073753 8 237 3.2 6.4 0.00 0.00 0.00 98 1009.0
20260903073525 8 18 3.2 6.4 0.00 0.00 0.00 98 1009.0
20260903072754 8 337 3.2 9.7 0.00 0.00 0.00 98 1009.3
20260903072254 8 63 1.6 9.7 0.00 0.00 0.00 98 1009.4
20260903071725 8 147 1.6 6.4 0.00 0.00 0.00 98 1009.4
20260903071501 7 357 0.0 3.2 0.00 0.00 0.00 98 1009.8
20260903071221 7 300 0.0 3.2 0.00 0.00 0.00 98 1009.6
20260903070213 7 22 1.6 6.4 0.00 0.00 0.00 98 1009.8
20260903065710 7 226 1.6 6.4 0.00 0.00 0.00 98 1009.7
20260903065204 7 198 1.6 4.8 0.00 0.00 0.00 97 1009.8
20260903064908 7 47 0.0 1.6 0.00 0.00 0.00 97 1009.8
20260903064113 7 42 0.0 3.2 0.00 0.00 0.00 97 1010.1
20260903063611 7 228 0.0 3.2 0.00 0.00 0.00 97 1010.1
20260903063111 7 285 1.6 6.4 0.00 0.00 0.00 97 1010.2
20260903062841 7 79 1.6 6.4 0.00 0.00 0.00 97 1010.4
20260903062108 7 236 0.0 3.2 0.00 0.00 0.00 97 1010.4
20260903061605 7 308 0.0 3.2 0.00 0.00 0.00 97 1010.4
20260903061337 7 70 0.0 3.2 0.00 0.00 0.00 97 1010.6
20260903060536 8 142 0.0 3.2 0.00 0.00 0.00 97 1010.7
20260903060011 8 22 0.0 3.2 0.00 0.00 0.00 97 1010.8
20260903055718 8 302 0.0 1.6 0.00 0.00 0.00 97 1011.0
20260903054919 7 302 0.0 1.6 0.00 0.00 0.00 97 1010.9
20260903054409 7 302 0.0 1.6 0.00 0.00 0.00 97 1010.9
20260903054138 7 318 0.0 3.2 0.00 0.00 0.00 97 1011.1
20260903053408 7 237 0.0 3.2 0.00 0.00 0.00 97 1011.2
20260903052838 7 325 0.0 0.0 0.00 0.00 0.00 97 1011.4
20260903052311 8 325 0.0 1.6 0.00 0.00 0.00 97 1011.6
20260903051750 8 307 0.0 1.6 0.00 0.00 0.00 97 1011.6
20260903051741 8 298 0.0 0.0 0.00 0.00 0.00 97 1011.6
20260903050736 8 302 0.0 0.0 0.00 0.00 0.00 97 1011.7
20260903050235 8 302 0.0 0.0 0.00 0.00 0.00 97 1011.9
20260903045728 8 302 0.0 0.0 0.00 0.00 0.00 97 1012.0
20260903045227 8 302 0.0 1.6 0.00 0.00 0.00 97 1012.0
20260903044723 8 302 0.0 1.6 0.00 0.00 0.00 97 1012.2
20260903044431 8 302 0.0 1.6 0.00 0.00 0.00 97 1012.2
20260903043655 8 177 0.0 1.6 0.00 0.00 0.00 97 1012.5
20260903043132 8 87 0.0 1.6 0.00 0.00 0.00 97 1012.8
20260903042603 8 337 0.0 0.0 0.00 0.00 0.00 97 1012.9
20260903042307 8 337 0.0 0.0 0.00 0.00 0.00 97 1013.0
20260903041516 8 337 0.0 0.0 0.00 0.00 0.00 96 1013.0
20260903040953 8 337 0.0 0.0 0.00 0.00 0.00 97 1013.1
20260903040450 8 337 0.0 0.0 0.00 0.00 0.00 97 1013.2
20260903040204 9 337 0.0 0.0 0.00 0.00 0.00 97 1013.2
20260903035432 9 337 0.0 0.0 0.00 0.00 0.00 97 1013.2
20260903034908 9 337 0.0 0.0 0.00 0.00 0.00 97 1013.3
20260903034348 9 337 0.0 1.6 0.00 0.00 0.00 97 1013.5
20260903033822 9 337 0.0 1.6 0.00 0.00 0.00 96 1013.5
20260903033253 9 337 0.0 0.0 0.00 0.00 0.00 96 1013.7
20260903032727 9 337 0.0 0.0 0.00 0.00 0.00 96 1013.7
20260903032217 9 337 0.0 0.0 0.00 0.00 0.00 96 1013.8
20260903031717 9 337 0.0 3.2 0.00 0.00 0.00 96 1013.9
20260903031216 9 337 0.0 3.2 0.00 0.00 0.00 96 1014.0
20260903030721 10 337 0.0 0.0 0.00 0.00 0.00 96 1014.0
20260903030155 10 337 0.0 0.0 0.00 0.00 0.00 96 1013.9
20260903025643 10 337 0.0 1.6 0.00 0.00 0.00 97 1014.1
20260903025140 10 337 0.0 1.6 0.00 0.00 0.00 96 1014.0
20260903024638 10 337 0.0 1.6 0.00 0.00 0.00 96 1014.2
20260903024131 10 337 0.0 0.0 0.00 0.00 0.00 96 1014.2
20260903023834 10 337 0.0 0.0 0.00 0.00 0.00 96 1014.3
20260903023036 10 337 0.0 0.0 0.00 0.00 0.00 96 1014.4
20260903022508 10 337 0.0 0.0 0.00 0.00 0.00 96 1014.3
20260903021949 10 337 0.0 0.0 0.00 0.00 0.00 96 1014.3
20260903021449 10 337 0.0 0.0 0.00 0.00 0.00 96 1014.5
20260903020955 10 337 0.0 0.0 0.00 0.00 0.00 96 1014.6
20260903020947 10 337 0.0 0.0 0.00 0.00 0.00 96 1014.5
20260903020201 10 337 0.0 0.0 0.00 0.00 0.00 96 1014.6
20260903020039 10 337 0.0 0.0 0.00 0.00 0.00 96 1014.7
20260903014929 10 337 0.0 0.0 0.00 0.00 0.00 96 1014.9
20260903014426 10 337 0.0 0.0 0.00 0.00 0.00 95 1014.9
20260903013924 10 337 0.0 0.0 0.00 0.00 0.00 96 1014.8
20260903013357 11 337 0.0 0.0 0.00 0.00 0.00 96 1014.8
20260903012850 11 337 0.0 0.0 0.00 0.00 0.00 96 1015.0
20260903012349 11 337 0.0 0.0 0.00 0.00 0.00 95 1014.9
20260903011844 11 337 0.0 0.0 0.00 0.00 0.00 95 1014.8
20260903011344 11 337 0.0 0.0 0.00 0.00 0.00 96 1014.9
20260903010844 11 337 0.0 0.0 0.00 0.00 0.00 96 1014.9
20260903010614 11 337 0.0 0.0 0.00 0.00 0.00 96 1015.0
20260903010116 11 337 0.0 0.0 0.00 0.00 0.00 95 1015.0
20260903005339 11 337 0.0 0.0 0.00 0.00 0.00 95 1015.1
20260903005109 11 337 0.0 0.0 0.00 0.00 0.00 95 1015.1
20260903004315 11 337 0.0 0.0 0.00 0.00 0.00 95 1015.1
20260903003753 11 337 0.0 0.0 0.00 0.00 0.00 95 1015.2
20260903003526 11 337 0.0 0.0 0.00 0.00 0.00 94 1015.0
20260903002752 11 337 0.0 0.0 0.00 0.00 0.00 94 1015.0
20260903002252 12 337 0.0 0.0 0.00 0.00 0.00 94 1015.1
20260903001721 12 337 0.0 3.2 0.00 0.00 0.00 94 1015.1
20260903001157 12 337 0.0 3.2 0.00 0.00 0.00 94 1015.1
20260903000651 12 337 0.0 0.0 0.00 0.00 0.00 94 1015.1
20260903000146 12 337 0.0 0.0 0.00 0.00 0.00 93 1015.1
20260902235642 12 337 0.0 0.0 0.00 0.00 0.00 93 1015.1
20260902235114 12 337 0.0 3.2 0.00 0.00 0.00 93 1015.1
20260902234613 12 337 0.0 3.2 0.00 0.00 0.00 92 1015.1
20260902234346 12 337 0.0 3.2 0.00 0.00 0.00 93 1015.3
20260902233611 13 279 0.0 0.0 0.00 0.00 0.00 92 1015.2
20260902233112 13 279 0.0 0.0 0.00 0.00 0.00 93 1015.2
20260902232549 13 279 0.0 0.0 0.00 0.00 0.00 92 1015.2
20260902232030 13 279 0.0 0.0 0.00 0.00 0.00 92 1015.2
20260902231527 13 279 0.0 0.0 0.00 0.00 0.00 91 1015.2
20260902231027 13 279 0.0 0.0 0.00 0.00 0.00 92 1015.2
20260902230526 13 279 0.0 0.0 0.00 0.00 0.00 92 1015.2
20260902230026 13 279 0.0 0.0 0.00 0.00 0.00 92 1015.1
20260902225523 13 279 0.0 0.0 0.00 0.00 0.00 92 1015.1
20260902225005 14 279 0.0 3.2 0.00 0.00 0.00 92 1015.1
20260902224705 14 279 1.6 3.2 0.00 0.00 0.00 92 1015.0
20260902223906 14 279 0.0 3.2 0.00 0.00 0.00 91 1015.0
20260902223620 14 279 0.0 3.2 0.00 0.00 0.00 90 1014.9
20260902222849 15 279 1.6 3.2 0.00 0.00 0.00 91 1014.8
20260902222345 15 279 1.6 3.2 0.00 0.00 0.00 92 1014.8
20260902222116 15 279 1.6 3.2 0.00 0.00 0.00 91 1014.8
20260902221341 15 279 0.0 3.2 0.00 0.00 0.00 90 1014.7
20260902220843 15 279 1.6 3.2 0.00 0.00 0.00 90 1014.8
20260902220318 15 279 0.0 3.2 0.00 0.00 0.00 89 1015.0
20260902215756 16 279 0.0 0.0 0.00 0.00 0.00 88 1015.0
20260902215232 16 279 0.0 0.0 0.00 0.00 0.00 87 1015.0
20260902214707 16 279 0.0 0.0 0.00 0.00 0.00 85 1014.9
20260902214207 16 279 0.0 0.0 0.00 0.00 0.00 85 1014.9
20260902213641 16 279 0.0 1.6 0.00 0.00 0.00 85 1015.0
20260902213347 17 279 0.0 1.6 0.00 0.00 0.00 85 1014.9
20260902212615 17 279 0.0 1.6 0.00 0.00 0.00 84 1014.9
20260902212115 17 279 0.0 3.2 0.00 0.00 0.00 83 1015.0
20260902211612 17 279 0.0 3.2 0.00 0.00 0.00 83 1015.1
20260902211113 18 279 0.0 1.6 0.00 0.00 0.00 82 1015.2
20260902210549 18 279 1.6 4.8 0.00 0.00 0.00 81 1015.2
20260902210037 18 279 3.2 4.8 0.00 0.00 0.00 80 1015.2
20260902205537 19 272 3.2 4.8 0.00 0.00 0.00 78 1015.2
20260902205042 20 285 3.2 4.8 0.00 0.00 0.00 77 1015.3
20260902204513 21 285 3.2 4.8 0.00 0.00 0.00 74 1015.2
20260902204212 22 275 1.6 3.2 0.00 0.00 0.00 72 1015.2
20260902203418 22 299 1.6 4.8 0.00 0.00 0.00 69 1015.3
20260902202854 23 299 1.6 4.8 0.00 0.00 0.00 66 1015.2
20260902202347 23 317 1.6 4.8 0.00 0.00 0.00 65 1015.3
20260902201824 24 329 1.6 4.8 0.00 0.00 0.00 65 1015.3
20260902201259 24 136 0.0 0.0 0.00 0.00 0.00 64 1015.3
20260902200749 24 136 0.0 3.2 0.00 0.00 0.00 63 1015.2
20260902200224 23 136 0.0 3.2 0.00 0.00 0.00 67 1015.2
20260902195713 23 136 0.0 3.2 0.00 0.00 0.00 60 1015.3
20260902195215 23 187 0.0 3.2 0.00 0.00 0.00 61 1015.4
20260902194710 23 128 0.0 3.2 0.00 0.00 0.00 60 1015.5
20260902194209 23 270 0.0 3.2 0.00 0.00 0.00 60 1015.5
20260902194146 23 203 1.6 4.8 0.00 0.00 0.00 61 1015.6
20260902193345 23 150 1.6 8.0 0.00 0.00 0.00 61 1015.7
20260902192549 23 208 1.6 8.0 0.00 0.00 0.00 62 1015.8
20260902192543 23 147 1.6 4.8 0.00 0.00 0.00 64 1015.7
20260902191513 23 187 1.6 4.8 0.00 0.00 0.00 62 1015.7
20260902191225 23 206 3.2 9.7 0.00 0.00 0.00 63 1015.8
20260902190725 23 270 4.8 9.7 0.00 0.00 0.00 63 1015.7
20260902185951 23 243 3.2 8.0 0.00 0.00 0.00 65 1015.7
20260902185452 23 160 1.6 6.4 0.00 0.00 0.00 65 1015.7
20260902185220 23 278 3.2 11.3 0.00 0.00 0.00 61 1015.7
20260902184417 23 35 1.6 11.3 0.00 0.00 0.00 64 1015.8
20260902183917 23 312 3.2 6.4 0.00 0.00 0.00 65 1015.8
20260902183621 23 214 1.6 6.4 0.00 0.00 0.00 63 1015.9
20260902182825 23 243 0.0 4.8 0.00 0.00 0.00 64 1016.0
20260902182307 23 294 1.6 6.4 0.00 0.00 0.00 70 1016.2
20260902181807 23 291 1.6 6.4 0.00 0.00 0.00 68 1016.1
20260902181241 23 285 3.2 6.4 0.00 0.00 0.00 67 1016.1
20260902180731 22 227 3.2 6.4 0.00 0.00 0.00 67 1016.3
20260902180230 22 98 1.6 11.3 0.00 0.00 0.00 69 1016.3
20260902175729 22 102 1.6 11.3 0.00 0.00 0.00 68 1016.4
20260902175209 22 99 3.2 8.0 0.00 0.00 0.00 69 1016.4